Showing default

IRIDIUM 124, 42810

Orbit data source: Space-Track

IRIDIUM 124, 42810 is a payload satellite owned by Iridium (US) in LEO that was launched on Sun, 25 Jun 2017 UTC via an FALCON 9 launch vehicle from the Air Force Western Test Range (AFWTR). Payload-class satellites include a variety of spacecraft equipped with specific instruments for various scientific and technological missions. These include communications satellites like Starlink; space stations such as the ISS; scientific satellites like the Hubble; Earth observation satellites from companies like Planet Labs, Umbra, and HawkEye 360; GPS; miniature CubeSats for education and research; and military/defense satellites.

Loading next visibility...
Identifier
42810, 2017-039H
Orbit
LEO
Country
Flag of USUS
Related business
Manufacturer
OATK SSG Gilbert
Mission
Operational Commercial Communications
Bus & Motor
ELITEBUS, Unknown motor
Mass
860 kg wet, 700 kg dry
Launch date (UTC)
2017-06-25 (9 years ago)
Launch vehicle
FALCON 9
Launch site
Air Force Western Test Range (AFWTR)
Object type
Payload
Rocket body
Debris
Shape & HBR
Trap Box + 2 Pan, 4.8 m
Radar Cross Section
10.154 m², Large (>1 m²)

Expand to show TLE details & history
Last TLE update: 10 hours ago

TLE from 10 hours ago
0 IRIDIUM 124
1 42810U 17039H   26127.90985286  .00000090  00000-0  20816-4 0  9990
2 42810  86.4455 307.2116 0002239  89.8634 270.2824 14.43283305469303
Epoch: 2026-05-07T21:50Z
TLE epoch observation values (Epoch: 2026-05-07T21:50:11.287Z)
Latitude
0.00005°
Longitude
113.91535°
Altitude
750.728 km
Speed
7.479 km/s
True Right ascension
20h 28m 50s
True Declination
0° 00' 00"
Sunlit
Object was in daylight at epoch
Visualization orbit readout
Latitude
Unknown
Longitude
Unknown
Altitude
Unknown
Speed
Unknown
Apparent Right ascension
Unknown
Apparent Declination
Unknown
Sunlit
N/A
Visualization observer readout
Local Sidereal Time
16:07:11
Azimuth
Unknown
Elevation
Unknown
Doppler factor
Unknown
Orbital elements
Apogee altitude
746.216 km
Perigee altitude
743.027 km
Semi-major axis
7,122.759 km
Eccentricity
0.00022
Inclination
86.4455°
RAAN
307.2116°
Arg. of periapsis
89.8634°
True anomaly
270.25674°
Mean anomaly
270.2824°
Eccentric anomaly
270.26957°
Mean motion
3.61053 °/min
Orbital period
99.71 mins
BSTAR
0.000020816
Loading maneuver chart data...
Computing Atmospheric mass density...
Loading historical data...
Loading historical data...
Loading historical data...
Loading historical data...
Loading historical data...
Loading historical data...
Loading historical data...

Documentation

Showing up to 5 results
|